timestamp,wind_dir_avg,wind_spd_avg,wind_spd_max_dir,wind_spd_gust,battery_voltage,lat,long
2022-12-31 00:04:00+00:00,228.0,5.11,218.0,5.94,12.41,47.59359,-54.27349
2022-12-31 00:14:00+00:00,223.0,4.89,221.0,5.72,12.41,47.59359,-54.27349
2022-12-31 00:24:00+00:00,221.0,5.43,219.0,6.07,12.41,47.59359,-54.27349
2022-12-31 00:34:00+00:00,224.0,6.12,230.0,6.73,12.41,47.59359,-54.27349
2022-12-31 00:44:00+00:00,234.0,6.38,240.0,8.58,12.41,47.59359,-54.27349
2022-12-31 00:54:00+00:00,237.0,8.11,241.0,10.62,12.41,47.59359,-54.27349
2022-12-31 01:04:00+00:00,234.0,6.73,244.0,10.14,12.41,47.59359,-54.27349
2022-12-31 01:14:00+00:00,230.0,5.55,234.0,6.96,12.33,47.59359,-54.27349
2022-12-31 01:24:00+00:00,232.0,7.36,239.0,10.33,12.33,47.59359,-54.27349
2022-12-31 01:34:00+00:00,233.0,8.04,242.0,10.81,12.33,47.59359,-54.27349
2022-12-31 01:44:00+00:00,234.0,8.52,241.0,11.02,12.33,47.59359,-54.27349
2022-12-31 01:54:00+00:00,239.0,8.17,239.0,10.99,12.33,47.59359,-54.27349
2022-12-31 02:04:00+00:00,227.0,7.47,241.0,10.54,12.33,47.59359,-54.27349
2022-12-31 02:14:00+00:00,239.0,10.32,240.0,11.66,12.33,47.59359,-54.27349
2022-12-31 02:24:00+00:00,231.0,8.66,237.0,11.29,12.33,47.59359,-54.27349
2022-12-31 02:34:00+00:00,235.0,10.2,240.0,11.87,12.33,47.59359,-54.27349
2022-12-31 02:44:00+00:00,233.0,10.92,238.0,12.2,12.33,47.59359,-54.27349
2022-12-31 02:54:00+00:00,231.0,10.27,235.0,12.34,12.33,47.59359,-54.27349
2022-12-31 03:04:00+00:00,231.0,11.81,229.0,13.15,12.33,47.59359,-54.27349
2022-12-31 03:14:01+00:00,224.0,11.53,228.0,13.19,12.33,47.59359,-54.27349
2022-12-31 03:24:01+00:00,229.0,11.56,229.0,13.11,12.33,47.59359,-54.27349
2022-12-31 03:34:01+00:00,229.0,11.8,229.0,13.2,12.33,47.59359,-54.27349
2022-12-31 03:44:01+00:00,226.0,11.64,229.0,13.0,12.33,47.59359,-54.27349
2022-12-31 03:54:01+00:00,228.0,10.72,231.0,12.86,12.33,47.59359,-54.27349
2022-12-31 04:04:01+00:00,230.0,10.73,234.0,12.56,12.33,47.59359,-54.27349
2022-12-31 04:14:00+00:00,236.0,10.15,231.0,11.98,12.33,47.59359,-54.27349
2022-12-31 04:24:00+00:00,236.0,9.99,236.0,11.59,12.33,47.59359,-54.27349
2022-12-31 04:34:00+00:00,230.0,10.31,231.0,12.35,12.33,47.59359,-54.27349
2022-12-31 04:44:00+00:00,227.0,10.61,229.0,12.73,12.33,47.59359,-54.27349
2022-12-31 04:54:00+00:00,221.0,11.8,220.0,13.58,12.33,47.59359,-54.27349
2022-12-31 05:04:00+00:00,222.0,12.04,216.0,13.32,12.33,47.59359,-54.27349
2022-12-31 05:14:01+00:00,223.0,11.35,220.0,12.96,12.33,47.59359,-54.27349
2022-12-31 05:24:01+00:00,224.0,11.59,229.0,13.29,12.33,47.59359,-54.27349
2022-12-31 05:34:01+00:00,216.0,12.68,216.0,14.26,12.33,47.59359,-54.27349
2022-12-31 05:44:01+00:00,225.0,11.94,228.0,13.26,12.33,47.59359,-54.27349
2022-12-31 05:54:01+00:00,219.0,11.52,217.0,13.61,12.33,47.59359,-54.27349
2022-12-31 06:04:01+00:00,222.0,10.96,219.0,12.32,12.33,47.59359,-54.27349
2022-12-31 06:14:00+00:00,218.0,11.66,215.0,13.35,12.25,47.59359,-54.27349
2022-12-31 06:24:00+00:00,222.0,11.46,223.0,12.97,12.25,47.59359,-54.27349
2022-12-31 06:34:00+00:00,218.0,12.75,216.0,14.51,12.25,47.59359,-54.27349
2022-12-31 06:44:00+00:00,215.0,13.43,214.0,15.0,12.25,47.59359,-54.27349
2022-12-31 06:54:00+00:00,217.0,11.97,229.0,14.43,12.25,47.59359,-54.27349
2022-12-31 07:04:00+00:00,215.0,12.68,215.0,14.57,12.25,47.59359,-54.27349
2022-12-31 07:14:00+00:00,218.0,12.86,230.0,16.04,12.25,47.59359,-54.27349
2022-12-31 07:24:00+00:00,220.0,12.25,225.0,14.25,12.25,47.59359,-54.27349
2022-12-31 07:34:00+00:00,227.0,10.89,228.0,13.16,12.25,47.59359,-54.27349
2022-12-31 07:44:00+00:00,227.0,12.46,231.0,14.47,12.25,47.59359,-54.27349
2022-12-31 07:54:00+00:00,226.0,12.8,232.0,14.76,12.25,47.59359,-54.27349
2022-12-31 08:04:00+00:00,223.0,13.82,227.0,15.97,12.25,47.59359,-54.27349
2022-12-31 08:14:00+00:00,220.0,11.81,220.0,13.52,12.25,47.59359,-54.27349
2022-12-31 08:24:00+00:00,214.0,14.33,212.0,16.05,12.25,47.59359,-54.27349
2022-12-31 08:34:00+00:00,216.0,13.96,213.0,15.74,12.25,47.59359,-54.27349
2022-12-31 08:44:00+00:00,214.0,13.99,210.0,16.27,12.25,47.59359,-54.27349
2022-12-31 08:54:00+00:00,215.0,13.14,216.0,15.13,12.25,47.59359,-54.27349
2022-12-31 09:04:00+00:00,215.0,13.57,208.0,15.74,12.25,47.59359,-54.27349
2022-12-31 09:14:01+00:00,213.0,14.29,212.0,16.26,12.25,47.59359,-54.27349
2022-12-31 09:24:01+00:00,212.0,15.71,212.0,17.37,12.25,47.59359,-54.27349
2022-12-31 09:34:01+00:00,212.0,14.8,212.0,16.33,12.25,47.59359,-54.27349
2022-12-31 09:44:01+00:00,213.0,13.72,213.0,15.85,12.25,47.59359,-54.27349
2022-12-31 09:54:01+00:00,210.0,15.03,212.0,16.37,12.25,47.59359,-54.27349
2022-12-31 10:04:01+00:00,211.0,11.64,206.0,14.28,12.25,47.59359,-54.27349
2022-12-31 10:14:00+00:00,213.0,12.05,216.0,14.16,12.17,47.59359,-54.27349
2022-12-31 10:24:00+00:00,213.0,12.56,212.0,14.26,12.17,47.59359,-54.27349
2022-12-31 10:34:00+00:00,212.0,11.31,215.0,13.01,12.17,47.59359,-54.27349
2022-12-31 10:44:00+00:00,212.0,11.91,212.0,14.14,12.17,47.59359,-54.27349
2022-12-31 10:54:00+00:00,212.0,12.13,214.0,13.31,12.17,47.59359,-54.27349
2022-12-31 11:04:00+00:00,212.0,11.88,217.0,13.27,12.17,47.59359,-54.27349
2022-12-31 11:14:00+00:00,215.0,10.89,215.0,12.21,12.17,47.59359,-54.27349
2022-12-31 11:24:00+00:00,211.0,11.34,209.0,13.34,12.17,47.59359,-54.27349
2022-12-31 11:34:00+00:00,208.0,11.02,207.0,12.6,12.17,47.59359,-54.27349
2022-12-31 11:44:00+00:00,216.0,10.61,215.0,12.46,12.17,47.59359,-54.27349
2022-12-31 11:54:00+00:00,216.0,9.67,217.0,10.62,12.17,47.59359,-54.27349
2022-12-31 12:04:00+00:00,220.0,9.46,221.0,10.91,12.17,47.59359,-54.27349
2022-12-31 12:14:00+00:00,224.0,10.01,222.0,12.28,12.17,47.59359,-54.27349
2022-12-31 12:24:00+00:00,228.0,9.0,225.0,10.39,12.17,47.59359,-54.27349
2022-12-31 12:34:00+00:00,227.0,9.49,219.0,11.33,12.17,47.59359,-54.27349
2022-12-31 12:44:00+00:00,223.0,9.97,223.0,11.85,12.17,47.59359,-54.27349
2022-12-31 12:54:00+00:00,225.0,9.54,222.0,10.66,12.17,47.59359,-54.27349
2022-12-31 13:04:00+00:00,225.0,9.82,224.0,11.4,12.17,47.59359,-54.27349
2022-12-31 13:14:00+00:00,222.0,9.79,220.0,10.7,12.17,47.59359,-54.27349
2022-12-31 13:24:00+00:00,225.0,9.29,215.0,11.08,12.17,47.59359,-54.27349
2022-12-31 13:34:00+00:00,229.0,9.36,230.0,10.9,12.17,47.59359,-54.27349
2022-12-31 13:44:00+00:00,230.0,8.83,236.0,9.91,12.17,47.59359,-54.27349
2022-12-31 13:54:00+00:00,230.0,7.74,228.0,9.3,12.17,47.59359,-54.27349
2022-12-31 14:04:00+00:00,230.0,9.7,237.0,11.91,12.17,47.59359,-54.27349
2022-12-31 14:14:00+00:00,235.0,8.37,229.0,9.99,12.17,47.59359,-54.27349
2022-12-31 14:24:00+00:00,233.0,7.62,235.0,9.13,12.17,47.59359,-54.27349
2022-12-31 14:34:00+00:00,228.0,8.18,234.0,9.41,12.17,47.59359,-54.27349
2022-12-31 14:44:00+00:00,222.0,10.11,217.0,11.22,12.17,47.59359,-54.27349
2022-12-31 14:54:00+00:00,224.0,10.11,226.0,11.43,12.17,47.59359,-54.27349
2022-12-31 15:04:00+00:00,219.0,10.29,216.0,11.79,12.17,47.59359,-54.27349
2022-12-31 15:14:00+00:00,218.0,8.79,225.0,10.04,12.25,47.59359,-54.27349
2022-12-31 15:24:00+00:00,221.0,8.37,220.0,10.26,12.25,47.59359,-54.27349
2022-12-31 15:34:00+00:00,218.0,8.48,218.0,9.71,12.25,47.59359,-54.27349
2022-12-31 15:44:00+00:00,214.0,9.25,215.0,10.26,12.25,47.59359,-54.27349
2022-12-31 15:54:00+00:00,224.0,8.38,214.0,10.61,12.25,47.59359,-54.27349
2022-12-31 16:04:00+00:00,228.0,8.99,230.0,10.89,12.25,47.59359,-54.27349
2022-12-31 16:14:00+00:00,225.0,9.23,225.0,10.39,12.25,47.59359,-54.27349
2022-12-31 16:24:00+00:00,219.0,6.97,222.0,7.86,12.25,47.59359,-54.27349
2022-12-31 16:34:00+00:00,218.0,7.47,219.0,8.8,12.25,47.59359,-54.27349
2022-12-31 16:44:00+00:00,209.0,7.05,212.0,8.69,12.25,47.59359,-54.27349
2022-12-31 16:54:00+00:00,188.0,6.59,188.0,7.6,12.25,47.59359,-54.27349
2022-12-31 17:04:00+00:00,199.0,7.64,196.0,8.84,12.25,47.59359,-54.27349
2022-12-31 17:14:00+00:00,197.0,7.86,199.0,8.82,12.17,47.59359,-54.27349
2022-12-31 17:24:00+00:00,194.0,8.11,195.0,8.97,12.17,47.59359,-54.27349
2022-12-31 17:34:00+00:00,205.0,6.84,205.0,7.67,12.17,47.59359,-54.27349
2022-12-31 17:44:00+00:00,225.0,5.94,223.0,7.22,12.17,47.59359,-54.27349
2022-12-31 17:54:00+00:00,230.0,5.06,232.0,6.23,12.17,47.59359,-54.27349
2022-12-31 18:04:00+00:00,220.0,5.31,221.0,6.87,12.17,47.59359,-54.27349
2022-12-31 18:14:01+00:00,225.0,5.07,225.0,6.59,12.17,47.59359,-54.27349
2022-12-31 18:24:01+00:00,222.0,5.51,218.0,6.99,12.17,47.59359,-54.27349
2022-12-31 18:34:01+00:00,229.0,5.35,232.0,7.66,12.17,47.59359,-54.27349
2022-12-31 18:44:01+00:00,235.0,6.47,238.0,6.9,12.17,47.59359,-54.27349
2022-12-31 18:54:01+00:00,234.0,5.65,235.0,6.34,12.17,47.59359,-54.27349
2022-12-31 19:04:01+00:00,234.0,5.24,237.0,6.17,12.17,47.59359,-54.27349
2022-12-31 19:14:00+00:00,251.0,4.98,254.0,6.47,12.17,47.59359,-54.27349
2022-12-31 19:24:00+00:00,269.0,5.95,272.0,6.71,12.17,47.59359,-54.27349
2022-12-31 19:34:00+00:00,231.0,4.1,248.0,6.03,12.17,47.59359,-54.27349
2022-12-31 19:44:00+00:00,213.0,2.72,260.0,5.95,12.17,47.59359,-54.27349
2022-12-31 19:54:00+00:00,221.0,4.7,234.0,6.16,12.17,47.59359,-54.27349
2022-12-31 20:04:00+00:00,218.0,4.87,225.0,6.34,12.17,47.59359,-54.27349
2022-12-31 20:14:00+00:00,224.0,4.86,231.0,6.42,12.17,47.59359,-54.27349
2022-12-31 20:24:00+00:00,220.0,4.19,226.0,5.15,12.17,47.59359,-54.27349
2022-12-31 20:34:00+00:00,221.0,4.0,236.0,5.48,12.17,47.59359,-54.27349
2022-12-31 20:44:00+00:00,196.0,4.18,195.0,4.84,12.17,47.59359,-54.27349
2022-12-31 20:54:00+00:00,197.0,6.08,204.0,6.8,12.17,47.59359,-54.27349
2022-12-31 21:04:00+00:00,213.0,5.84,218.0,6.88,12.17,47.59359,-54.27349
2022-12-31 21:14:00+00:00,213.0,6.48,217.0,7.73,12.17,47.59359,-54.27349
2022-12-31 21:24:00+00:00,213.0,6.43,209.0,7.08,12.17,47.59359,-54.27349
2022-12-31 21:34:00+00:00,209.0,6.85,213.0,7.65,12.17,47.59359,-54.27349
2022-12-31 21:44:00+00:00,209.0,5.94,212.0,6.76,12.17,47.59359,-54.27349
2022-12-31 21:54:00+00:00,203.0,5.61,201.0,6.88,12.17,47.59359,-54.27349
2022-12-31 22:04:00+00:00,208.0,5.16,212.0,5.95,12.17,47.59359,-54.27349
2022-12-31 22:14:01+00:00,211.0,4.18,213.0,4.8,12.17,47.59359,-54.27349
2022-12-31 22:24:01+00:00,212.0,4.05,215.0,4.48,12.17,47.59359,-54.27349
2022-12-31 22:34:01+00:00,231.0,4.89,233.0,5.98,12.17,47.59359,-54.27349
2022-12-31 22:44:01+00:00,228.0,4.53,226.0,5.03,12.17,47.59359,-54.27349
2022-12-31 22:54:01+00:00,226.0,3.69,249.0,6.27,12.17,47.59359,-54.27349
2022-12-31 23:04:01+00:00,196.0,3.26,198.0,3.54,12.17,47.59359,-54.27349
2022-12-31 23:14:00+00:00,198.0,5.23,214.0,6.03,12.17,47.59359,-54.27349
2022-12-31 23:24:00+00:00,205.0,5.53,218.0,6.69,12.17,47.59359,-54.27349
2022-12-31 23:34:00+00:00,213.0,4.46,226.0,5.82,12.17,47.59359,-54.27349
2022-12-31 23:44:00+00:00,223.0,4.23,224.0,4.79,12.17,47.59359,-54.27349
2022-12-31 23:54:00+00:00,219.0,5.11,226.0,5.81,12.17,47.59359,-54.27349
